TimeCDT,TemperatureF,Dew PointF,Humidity,Sea Level PressureIn,VisibilityMPH,Wind Direction,Wind SpeedMPH,Gust SpeedMPH,PrecipitationIn,Events,Conditions,WindDirDegrees,DateUTC
12:15 AM,34.0,25.7,72,29.99,10.0,NW,15.0,18.4,N/A,,Mostly Cloudy,310,2013-04-19 05:15:00
12:35 AM,33.8,25.2,71,29.98,10.0,WNW,11.5,17.3,N/A,,Scattered Clouds,300,2013-04-19 05:35:00
12:55 AM,33.6,25.7,73,29.98,10.0,WNW,12.7,21.9,N/A,,Clear,300,2013-04-19 05:55:00
1:15 AM,33.1,25.5,74,29.98,10.0,WNW,12.7,18.4,N/A,,Clear,300,2013-04-19 06:15:00
1:35 AM,32.9,25.5,74,29.99,10.0,WNW,11.5,-,N/A,,Clear,300,2013-04-19 06:35:00
1:55 AM,32.2,25.5,76,29.98,10.0,WNW,8.1,-,N/A,,Clear,290,2013-04-19 06:55:00
2:15 AM,32.0,25.7,78,29.98,10.0,WNW,9.2,-,N/A,,Clear,290,2013-04-19 07:15:00
2:35 AM,32.0,25.3,76,29.97,10.0,WNW,11.5,-,N/A,,Clear,290,2013-04-19 07:35:00
2:55 AM,32.0,25.0,75,29.97,10.0,WNW,12.7,17.3,N/A,,Clear,290,2013-04-19 07:55:00
3:15 AM,32.0,24.6,74,29.97,10.0,WNW,12.7,-,N/A,,Clear,290,2013-04-19 08:15:00
3:35 AM,32.0,24.3,73,29.97,10.0,WNW,11.5,19.6,N/A,,Clear,300,2013-04-19 08:35:00
3:55 AM,32.0,23.9,72,29.97,10.0,WNW,12.7,18.4,N/A,,Clear,290,2013-04-19 08:55:00
4:15 AM,32.0,24.3,73,29.97,10.0,WNW,11.5,-,N/A,,Clear,290,2013-04-19 09:15:00
4:35 AM,31.8,23.9,73,29.97,10.0,WNW,11.5,16.1,N/A,,Clear,300,2013-04-19 09:35:00
4:55 AM,31.5,23.9,74,29.98,10.0,WNW,11.5,-,N/A,,Clear,290,2013-04-19 09:55:00
5:15 AM,31.1,23.9,75,29.98,10.0,WNW,10.4,-,N/A,,Clear,290,2013-04-19 10:15:00
5:55 AM,30.2,23.9,77,29.99,10.0,West,8.1,-,N/A,,Clear,270,2013-04-19 10:55:00
6:15 AM,29.7,24.4,81,29.99,10.0,WNW,9.2,-,N/A,,Clear,290,2013-04-19 11:15:00
6:35 AM,30.0,24.3,79,29.99,10.0,West,9.2,-,N/A,,Clear,280,2013-04-19 11:35:00
6:55 AM,30.0,23.9,78,30.00,10.0,West,9.2,-,N/A,,Clear,280,2013-04-19 11:55:00
7:15 AM,31.1,23.2,72,30.00,10.0,WNW,11.5,-,N/A,,Clear,290,2013-04-19 12:15:00
7:35 AM,31.3,23.9,74,30.01,10.0,West,10.4,-,N/A,,Clear,280,2013-04-19 12:35:00
7:55 AM,32.0,24.6,74,30.00,10.0,West,12.7,-,N/A,,Clear,280,2013-04-19 12:55:00
8:15 AM,32.7,24.8,73,30.00,10.0,WNW,9.2,-,N/A,,Clear,290,2013-04-19 13:15:00
8:35 AM,34.2,23.9,66,30.00,10.0,WNW,9.2,17.3,N/A,,Clear,300,2013-04-19 13:35:00
8:55 AM,35.1,23.7,63,30.00,10.0,WNW,12.7,18.4,N/A,,Clear,290,2013-04-19 13:55:00
9:15 AM,36.0,23.7,61,30.00,10.0,NW,12.7,-,N/A,,Clear,310,2013-04-19 14:15:00
9:55 AM,38.8,24.4,56,29.99,10.0,NW,12.7,-,N/A,,Clear,310,2013-04-19 14:55:00
10:15 AM,39.7,23.2,52,29.99,10.0,NW,11.5,20.7,N/A,,Scattered Clouds,310,2013-04-19 15:15:00
10:35 AM,41.0,21.9,47,30.00,10.0,WNW,13.8,19.6,N/A,,Scattered Clouds,300,2013-04-19 15:35:00
10:55 AM,42.1,22.3,45,30.00,10.0,WNW,11.5,-,N/A,,Mostly Cloudy,290,2013-04-19 15:55:00
11:15 AM,42.8,23.2,46,30.00,10.0,WNW,10.4,18.4,N/A,,Mostly Cloudy,300,2013-04-19 16:15:00
11:35 AM,44.1,24.4,46,30.01,10.0,West,12.7,18.4,N/A,,Overcast,280,2013-04-19 16:35:00
11:55 AM,45.5,24.8,44,30.01,10.0,WNW,12.7,20.7,N/A,,Scattered Clouds,300,2013-04-19 16:55:00
12:15 PM,45.9,21.9,39,30.01,10.0,NW,13.8,23.0,N/A,,Clear,320,2013-04-19 17:15:00
12:35 PM,46.9,24.6,42,30.00,10.0,NNW,16.1,23.0,N/A,,Clear,330,2013-04-19 17:35:00
12:55 PM,47.8,26.2,43,30.00,10.0,NW,13.8,19.6,N/A,,Clear,320,2013-04-19 17:55:00
1:15 PM,48.4,26.2,42,30.00,10.0,WNW,11.5,21.9,N/A,,Clear,300,2013-04-19 18:15:00
1:35 PM,49.1,27.9,44,30.00,10.0,NW,12.7,20.7,N/A,,Clear,320,2013-04-19 18:35:00
1:55 PM,48.9,27.7,44,30.00,10.0,NW,15.0,20.7,N/A,,Mostly Cloudy,310,2013-04-19 18:55:00
2:15 PM,49.5,27.9,43,30.00,10.0,NW,19.6,27.6,N/A,,Overcast,320,2013-04-19 19:15:00
2:35 PM,50.4,28.4,43,30.00,10.0,NW,17.3,24.2,N/A,,Mostly Cloudy,310,2013-04-19 19:35:00
2:55 PM,51.3,28.4,41,30.00,10.0,NW,18.4,25.3,N/A,,Scattered Clouds,320,2013-04-19 19:55:00
3:15 PM,50.4,28.8,43,30.00,10.0,NW,12.7,18.4,N/A,,Mostly Cloudy,320,2013-04-19 20:15:00
3:35 PM,52.0,28.8,41,30.00,10.0,NW,13.8,21.9,N/A,,Mostly Cloudy,320,2013-04-19 20:35:00
3:55 PM,52.7,29.1,40,30.00,10.0,NNW,13.8,21.9,N/A,,Overcast,330,2013-04-19 20:55:00
4:15 PM,52.0,27.9,39,29.99,10.0,NNW,17.3,23.0,N/A,,Mostly Cloudy,340,2013-04-19 21:15:00
4:35 PM,51.6,27.5,39,30.00,10.0,NNW,15.0,20.7,N/A,,Scattered Clouds,330,2013-04-19 21:35:00
4:55 PM,52.3,27.9,39,30.00,10.0,NNW,15.0,20.7,N/A,,Scattered Clouds,340,2013-04-19 21:55:00
5:15 PM,52.5,26.1,36,30.01,10.0,NNW,18.4,23.0,N/A,,Scattered Clouds,340,2013-04-19 22:15:00
5:35 PM,49.6,25.5,39,30.01,10.0,NNW,16.1,20.7,N/A,,Scattered Clouds,330,2013-04-19 22:35:00
5:55 PM,50.0,26.2,40,30.02,10.0,NNW,10.4,-,N/A,,Mostly Cloudy,330,2013-04-19 22:55:00
6:15 PM,50.0,26.6,40,30.02,10.0,NNW,11.5,19.6,N/A,,Scattered Clouds,340,2013-04-19 23:15:00
6:35 PM,50.5,25.5,38,30.02,10.0,NNW,13.8,20.7,N/A,,Mostly Cloudy,340,2013-04-19 23:35:00
6:55 PM,49.3,25.3,39,30.03,10.0,North,12.7,-,N/A,,Scattered Clouds,350,2013-04-19 23:55:00
7:15 PM,49.3,25.9,40,30.03,10.0,NNW,9.2,-,N/A,,Clear,340,2013-04-20 00:15:00
7:35 PM,48.4,26.1,42,30.03,10.0,North,8.1,-,N/A,,Clear,350,2013-04-20 00:35:00
7:55 PM,47.3,25.9,43,30.04,10.0,North,8.1,-,N/A,,Clear,360,2013-04-20 00:55:00
8:15 PM,46.0,25.9,45,30.04,10.0,North,4.6,-,N/A,,Clear,10,2013-04-20 01:15:00
8:35 PM,44.6,26.2,49,30.05,10.0,North,5.8,-,N/A,,Clear,10,2013-04-20 01:35:00
8:55 PM,43.7,26.1,50,30.05,10.0,NNE,5.8,-,N/A,,Clear,20,2013-04-20 01:55:00
9:15 PM,41.4,27.1,57,30.07,10.0,NNE,5.8,-,N/A,,Clear,30,2013-04-20 02:15:00
9:35 PM,39.9,27.0,60,30.08,10.0,NE,3.5,-,N/A,,Clear,50,2013-04-20 02:35:00
9:55 PM,37.8,27.0,65,30.09,10.0,Calm,Calm,-,N/A,,Clear,0,2013-04-20 02:55:00
10:15 PM,37.9,26.6,64,30.09,10.0,Calm,Calm,-,N/A,,Clear,0,2013-04-20 03:15:00
10:35 PM,37.6,26.4,64,30.10,10.0,ENE,3.5,-,N/A,,Clear,60,2013-04-20 03:35:00
10:55 PM,37.0,26.2,65,30.10,10.0,Calm,Calm,-,N/A,,Clear,0,2013-04-20 03:55:00
11:15 PM,35.6,25.9,68,30.10,10.0,East,4.6,-,N/A,,Clear,80,2013-04-20 04:15:00
11:35 PM,33.8,25.7,72,30.11,10.0,ESE,3.5,-,N/A,,Clear,120,2013-04-20 04:35:00
11:55 PM,35.4,24.8,65,30.10,10.0,ENE,4.6,-,N/A,,Clear,70,2013-04-20 04:55:00